星链-30354 (STARLINK-30354 )

导读

STARLINK-30354是美国SpaceX星链星座的卫星,于2023年9月4日发射入轨,隶属于星链低轨互联网星座网络,承担全球互联网覆盖服务任务。星链通过批量发射低轨卫星,持续扩容太空通信基础设施,该卫星加入后进一步完善了星链星座的全球覆盖与通信容量,支撑天地一体化互联网络服务。

基本信息
目录编号:
57772
目录名称:
STARLINK-30354
国际标识:
2023-134B
轨道中心:
EARTH
卫星名称:
星链-30354
卫星全名:
星链-30354 (STARLINK-30354 )
卫星状态:
在轨 (已飞行1096 天)
发射日期:
2023-09-04 UTC
国别 :
美国 (US)
星等 :
--
轨道信息
数据来源 国际轨道数据
星历时间: 2026-09-04T10:03:49+0800
11小时前
查看轨道信息
半长轴: 6861.184km
偏心率: 0.0001462
轨道倾角: 43.002°
近地点辐角 265.826°
升交点赤经 270.114°
平近点角 94.243°
近地点: 482.043km
远地点: 484.051km
周期: 94.267分钟
每日圈数: 15.27581
详细信息
固有亮度:
5
最大亮度:
0.3
卫星平台:
Starlink v2.0 mini
覆盖范围:
全球
运营商:
太空探索技术公司
运营商所在国:
美国
制造商(研发单位):
太空探索技术公司
制造商所在国:
美国
使用方式:
暂无
卫星简介
星链(Starlink)计划是由太空探索技术公司(SpaceX)提出的一个巨型低轨卫星互联网星座项目,计划在2019年至2024年间在太空搭建由约1.2万颗卫星组成的“星链”网络,其中1584颗将部署在地球上空550千米处的近地轨道,并从2020年开始工作。该卫星仍在工作。
2D轨道图
3D轨道图
轨道高度分析图
轨道倾角分析图
轨道综合分析图
查看轨道综合分析图
交会数据列表
事件ID 空间交会对象 最接近时刻(TCA) 交会距离 交会风险概率(CRP) 交会风险指数(CRI) 操作
CDM_260906-115405-777206-646021
2026-09-06T
11:54:34+0000
0.219 km
中距离
5.877448E-4 高风险 0.9
CDM_260906-011405-777206-377521
2026-09-06T
01:14:33+0000
0.443 km
远距离
2.126481E-4 高风险 0.82
CDM_260829-091905-777206-646021
2026-08-29T
09:19:11+0000
0.913 km
远距离
2.370308E-5 中风险 0.62
CDM_260829-175705-777206-646021
2026-08-29T
17:57:02+0000
1.013 km
极远距离
1.665673E-5 中风险 0.59
CDM_260906-132805-777206-646021
2026-09-06T
13:28:44+0000
1.608 km
极远距离
3.528106E-6 低风险 0.46
CDM_260905-234005-777206-377521
2026-09-05T
23:40:23+0000
1.884 km
极远距离
2.599815E-6 低风险 0.43
CDM_260829-074505-777206-646021
2026-08-29T
07:45:02+0000
1.823 km
极远距离
2.451353E-6 低风险 0.43
CDM_260906-102005-777206-646021
2026-09-06T
10:20:25+0000
1.924 km
极远距离
2.125572E-6 低风险 0.42